Mount Werner, CO

7:58 PM MDT on October 22, 2017 (GMT -0600)
Mount Werner

Weather History for K3MW - November, 2011

Change the Weather History Date:

Wednesday, November 23, 2011

  Actual Average (KSBS) Record (KSBS)
Temperature  
Mean Temperature 29 °F -  
Max Temperature 35 °F 37 °F 59 °F (1917)
Min Temperature 23 °F 13 °F -19 °F (1941)
Degree Days  
Heating Degree Days 36    
Moisture  
Dew Point 19 °F    
Average Humidity 64    
Maximum Humidity 86    
Minimum Humidity 38    
Precipitation  
Precipitation 0.00 in - - ()
Sea Level Pressure  
Sea Level Pressure 30.38 in    
Wind  
Wind Speed 5 mph (SSW)    
Max Wind Speed 10 mph    
Max Gust Speed 16 mph    
Visibility 10 miles    
Events      
Averages and records for this station are not official NWS values.
T = Trace of Precipitation, MM = Missing Value Source: NWS Daily Summary

Daily Weather History Graph

Daily Weather History Graph

Search for Another Location

Airport or City:

Trip Planner

Search our weather history database for the weather conditions in past years. The results will help you decide how hot, cold, wet, or windy it might be!

Date:

Astronomy

Nov. 23, 2011 Rise Set
Actual Time 7:02 AM MST 4:44 PM MST
Civil Twilight 6:32 AM MST 5:14 PM MST
Nautical Twilight 5:58 AM MST 5:47 PM MST
Astronomical Twilight 5:26 AM MST 6:20 PM MST
Moon 5:09 AM MST 3:28 PM MST
Length of Visible Light 10h 41m
Length of Day
9h 42m
Waning Crescent, 3% of the Moon is Illuminated
Nov 23
Waning Crescent
Nov 24
New
Dec 2
First Quarter
Dec 10
Full
Dec 17
Last Quarter

Hourly Weather History & Observations

Time (MST) Temp. Windchill Dew Point Humidity Pressure Visibility Wind Dir Wind Speed Gust Speed Precip Events Conditions
12:03 AM 24.8 °F 19.1 °F 21.2 °F 86% 30.43 in 10.0 mi SSW 4.6 mph - N/A   Clear
12:23 AM 24.8 °F 19.1 °F 19.4 °F 80% 30.43 in 10.0 mi SSW 4.6 mph - N/A   Clear
12:43 AM 23.0 °F 18.4 °F 19.4 °F 86% 30.42 in 10.0 mi SSW 3.5 mph - N/A   Clear
1:03 AM 23.0 °F 18.4 °F 19.4 °F 86% 30.42 in 10.0 mi SSW 3.5 mph - N/A   Clear
1:23 AM 23.0 °F 17.0 °F 19.4 °F 86% 30.42 in 10.0 mi SSW 4.6 mph - N/A   Clear
1:43 AM 23.0 °F 17.0 °F 19.4 °F 86% 30.42 in 10.0 mi SSW 4.6 mph - N/A   Clear
2:03 AM 23.0 °F 17.0 °F 19.4 °F 86% 30.42 in 10.0 mi SSW 4.6 mph - N/A   Clear
2:23 AM 24.8 °F 19.1 °F 19.4 °F 80% 30.41 in 10.0 mi SSW 4.6 mph - N/A   Clear
2:43 AM 24.8 °F 17.9 °F 19.4 °F 80% 30.41 in 10.0 mi SSW 5.8 mph - N/A   Clear
3:03 AM 24.8 °F 19.1 °F 19.4 °F 80% 30.41 in 10.0 mi SSW 4.6 mph - N/A   Clear
3:23 AM 24.8 °F 17.9 °F 19.4 °F 80% 30.41 in 10.0 mi SSW 5.8 mph - N/A   Clear
3:43 AM 24.8 °F 17.9 °F 21.2 °F 86% 30.40 in 10.0 mi SSW 5.8 mph - N/A   Clear
4:23 AM 26.6 °F 21.2 °F 21.2 °F 80% 30.40 in 10.0 mi South 4.6 mph - N/A   Clear
4:43 AM 26.6 °F 21.2 °F 21.2 °F 80% 30.40 in 10.0 mi South 4.6 mph - N/A   Clear
5:03 AM 26.6 °F 20.0 °F 21.2 °F 80% 30.40 in 10.0 mi SSW 5.8 mph - N/A   Clear
5:23 AM 26.6 °F 21.2 °F 21.2 °F 80% 30.40 in 10.0 mi SSW 4.6 mph - N/A   Clear
5:43 AM 26.6 °F 21.2 °F 21.2 °F 80% 30.40 in 10.0 mi SSW 4.6 mph - N/A   Clear
6:03 AM 26.6 °F 21.2 °F 21.2 °F 80% 30.40 in 10.0 mi South 4.6 mph - N/A   Clear
6:23 AM 26.6 °F 21.2 °F 21.2 °F 80% 30.40 in 10.0 mi South 4.6 mph - N/A   Clear
6:43 AM 26.6 °F 21.2 °F 19.4 °F 74% 30.40 in 10.0 mi South 4.6 mph - N/A   Clear
7:03 AM 28.4 °F 23.3 °F 19.4 °F 69% 30.40 in 10.0 mi South 4.6 mph - N/A   Clear
7:23 AM 26.6 °F - 17.6 °F 69% 30.40 in 10.0 mi Calm Calm - N/A   Clear
7:43 AM 28.4 °F 23.3 °F 17.6 °F 64% 30.40 in 10.0 mi South 4.6 mph - N/A   Clear
8:03 AM 30.2 °F 25.4 °F 17.6 °F 60% 30.41 in 10.0 mi South 4.6 mph - N/A   Clear
8:23 AM 30.2 °F 25.4 °F 17.6 °F 60% 30.42 in 10.0 mi SSE 4.6 mph - N/A   Clear
8:43 AM 32.0 °F 27.5 °F 17.6 °F 55% 30.41 in 10.0 mi South 4.6 mph - N/A   Clear
9:03 AM 32.0 °F 27.5 °F 19.4 °F 60% 30.42 in 10.0 mi South 4.6 mph - N/A   Clear
9:23 AM 32.0 °F 26.4 °F 17.6 °F 55% 30.42 in 10.0 mi SSW 5.8 mph - N/A   Clear
9:43 AM 32.0 °F 27.5 °F 19.4 °F 60% 30.42 in 10.0 mi South 4.6 mph - N/A   Clear
10:03 AM 33.8 °F 27.7 °F 19.4 °F 56% 30.42 in 10.0 mi South 6.9 mph - N/A   Clear
10:23 AM 33.8 °F 27.7 °F 19.4 °F 56% 30.42 in 10.0 mi SSW 6.9 mph - N/A   Clear
11:03 AM 33.8 °F 28.6 °F 19.4 °F 56% 30.41 in 10.0 mi South 5.8 mph - N/A   Clear
11:23 AM 35.6 °F 31.7 °F 19.4 °F 52% 30.40 in 10.0 mi South 4.6 mph - N/A   Clear
11:43 AM 33.8 °F 27.7 °F 19.4 °F 56% 30.40 in 10.0 mi SSW 6.9 mph - N/A   Clear
12:23 PM 35.6 °F 29.9 °F 19.4 °F 52% 30.38 in 10.0 mi SSW 6.9 mph - N/A   Clear
12:43 PM 35.6 °F 29.9 °F 19.4 °F 52% 30.37 in 10.0 mi SSW 6.9 mph - N/A   Clear
1:03 PM 35.6 °F 29.2 °F 19.4 °F 52% 30.37 in 10.0 mi SSW 8.1 mph - N/A   Clear
1:23 PM 35.6 °F 28.0 °F 21.2 °F 56% 30.36 in 10.0 mi SSW 10.4 mph - N/A   Clear
1:43 PM 35.6 °F 29.2 °F 21.2 °F 56% 30.36 in 10.0 mi SW 8.1 mph - N/A   Clear
2:03 PM 35.6 °F 29.2 °F 17.6 °F 48% 30.35 in 10.0 mi SSW 8.1 mph 16.1 mph N/A   Clear
2:23 PM 33.8 °F 27.7 °F 19.4 °F 56% 30.35 in 10.0 mi SSW 6.9 mph - N/A   Clear
2:43 PM 35.6 °F 29.2 °F 19.4 °F 52% 30.35 in 10.0 mi SSW 8.1 mph - N/A   Clear
3:03 PM 33.8 °F 27.7 °F 21.2 °F 60% 30.34 in 10.0 mi SSW 6.9 mph - N/A   Clear
3:23 PM 33.8 °F 27.7 °F 19.4 °F 56% 30.34 in 10.0 mi SSW 6.9 mph - N/A   Clear
4:03 PM 35.6 °F 31.7 °F 17.6 °F 48% 30.33 in 10.0 mi South 4.6 mph - N/A   Clear
4:23 PM 33.8 °F 28.6 °F 17.6 °F 52% 30.33 in 10.0 mi SSE 5.8 mph - N/A   Clear
4:43 PM 33.8 °F 30.8 °F 19.4 °F 56% 30.33 in 10.0 mi SSE 3.5 mph - N/A   Clear
5:03 PM 32.0 °F 27.5 °F 17.6 °F 55% 30.33 in 10.0 mi SSE 4.6 mph - N/A   Clear
6:03 PM 32.0 °F 26.4 °F 15.8 °F 51% 30.33 in 10.0 mi South 5.8 mph - N/A   Clear
6:43 PM 32.0 °F 25.6 °F 12.2 °F 44% 30.32 in 10.0 mi South 6.9 mph - N/A   Clear
7:03 PM 33.8 °F 27.7 °F 10.4 °F 38% 30.32 in 10.0 mi South 6.9 mph - N/A   Clear
7:23 PM 33.8 °F 28.6 °F 10.4 °F 38% 30.31 in 10.0 mi South 5.8 mph - N/A   Clear
7:43 PM 33.8 °F 27.7 °F 10.4 °F 38% 30.31 in 10.0 mi South 6.9 mph - N/A   Clear
8:03 PM 33.8 °F 28.6 °F 10.4 °F 38% 30.31 in 10.0 mi South 5.8 mph - N/A   Clear
8:23 PM 33.8 °F 28.6 °F 8.6 °F 35% 30.31 in 10.0 mi South 5.8 mph - N/A   Clear
8:43 PM 33.8 °F 27.0 °F 8.6 °F 35% 30.31 in 10.0 mi SSE 8.1 mph - N/A   Clear
9:03 PM 33.8 °F 28.6 °F 8.6 °F 35% 30.30 in 10.0 mi South 5.8 mph - N/A   Clear
9:23 PM 33.8 °F 27.7 °F 8.6 °F 35% 30.30 in 10.0 mi South 6.9 mph - N/A   Clear
9:43 PM 33.8 °F 28.6 °F 6.8 °F 32% 30.30 in 10.0 mi SSE 5.8 mph - N/A   Clear
10:03 PM 33.8 °F 27.7 °F 5.0 °F 30% 30.29 in 10.0 mi South 6.9 mph - N/A   Clear
10:23 PM 33.8 °F 27.7 °F 5.0 °F 30% 30.29 in 10.0 mi South 6.9 mph - N/A   Clear
10:43 PM 33.8 °F 27.0 °F 3.2 °F 28% 30.28 in 10.0 mi South 8.1 mph - N/A   Clear
11:23 PM 33.8 °F 26.4 °F 5.0 °F 30% 30.27 in 10.0 mi South 9.2 mph - N/A   Clear
11:43 PM 32.0 °F 24.8 °F 5.0 °F 32% 30.27 in 10.0 mi South 8.1 mph - N/A   Clear